Date,TemperatureHighF,TemperatureAvgF,TemperatureLowF,DewpointHighF,DewpointAvgF,DewpointLowF,HumidityHigh,HumidityAvg,HumidityLow,PressureMaxIn,PressureMinIn,WindSpeedMaxMPH,WindSpeedAvgMPH,GustSpeedMaxMPH,PrecipitationSumIn
2013-7-1,81,73,66,73,70,66,100,90,72,30.03,29.89,5,0,12,0.11
2013-7-2,77,72,70,73,70,69,100,95,83,30.21,30.03,3,1,13,0.14
2013-7-3,81,74,70,76,72,70,100,96,82,30.27,30.18,2,0,9,0.40
2013-7-4,87,76,71,76,72,70,100,91,61,30.30,30.22,6,1,16,0.08
2013-7-5,86,76,70,75,72,69,100,88,66,30.30,30.22,6,1,12,0.06
2013-7-6,86,76,68,75,72,68,100,89,66,30.29,30.16,6,0,15,0.31
2013-7-7,84,76,69,76,73,69,100,91,76,30.23,30.11,3,1,12,0.00
2013-7-8,86,76,69,74,71,69,100,88,61,30.24,30.14,2,0,6,0.30
2013-7-9,88,78,69,77,72,69,100,85,59,30.21,30.10,3,0,8,0.00
2013-7-10,87,77,68,75,70,66,96,81,63,30.15,29.99,6,1,16,0.30
2013-7-11,80,73,68,74,70,66,97,92,78,30.02,29.93,3,0,10,0.24
2013-7-12,77,70,66,69,66,63,97,87,71,30.08,29.94,7,2,18,0.31
2013-7-13,78,71,66,71,68,64,95,88,77,30.18,30.07,7,2,14,0.03
2013-7-14,86,76,70,75,70,68,97,83,62,30.34,30.18,7,2,15,0.11
2013-7-15,87,76,66,72,69,65,97,79,54,30.38,30.30,6,0,8,0.00
2013-7-16,92,77,65,80,72,64,100,84,57,30.35,30.25,3,0,10,0.00
2013-7-17,92,77,70,80,73,69,100,88,66,30.29,30.18,7,1,14,0.02
2013-7-18,92,79,69,78,73,67,99,82,59,30.22,30.09,3,0,10,0.01
2013-7-19,90,79,70,77,74,70,99,84,62,30.16,30.04,5,1,14,0.01
2013-7-20,86,76,71,76,72,70,99,89,71,30.08,29.98,6,1,12,0.01
2013-7-21,89,75,69,77,71,68,100,88,64,30.06,29.97,5,1,10,0.01
2013-7-22,86,76,69,75,72,69,99,87,68,30.02,29.88,3,1,12,0.00
2013-7-23,87,78,68,72,69,66,95,78,55,29.90,29.80,6,1,17,0.00
2013-7-24,89,77,65,72,68,63,96,75,54,29.93,29.81,5,1,12,0.00
2013-7-25,80,72,64,67,65,61,94,78,60,30.09,29.90,7,2,13,0.06
2013-7-26,83,74,64,68,65,63,96,77,54,30.17,30.07,0,0,3,0.00
2013-7-27,72,69,66,69,66,64,96,93,83,30.10,30.00,0,0,13,0.91
2013-7-28,84,73,67,71,68,66,97,85,63,30.05,29.98,3,0,10,0.01
2013-7-29,82,73,65,68,64,60,96,76,49,30.22,30.06,5,1,10,0.02
2013-7-30,84,71,60,69,63,59,96,78,53,30.29,30.20,5,0,10,0.00
2013-7-31,79,72,68,71,68,66,96,88,71,30.21,30.05,1,0,13,0.03